Location: Budapest
(47.4979°N, 19.0402°E)
Time: 14:35:17
(UTC+02:00)

ISS - Pass Details

Date: 13 October 2017
Orbit: 401 x 408 km, 51.6° (Epoch: 19 October)

Event Time Altitude Azimuth Distance (km) Brightness Sun altitude
Rises 18:30:36 0° 294° (WNW) 2,325 1.2 -6.0°
Reaches altitude 10° 18:32:40 10° 293° (WNW) 1,465 0.1 -6.4°
Maximum altitude 18:35:57 81° 208° (SSW) 416 -3.7 -6.9°
Drops below altitude 10° 18:39:14 10° 120° (ESE) 1,462 -1.5 -7.5°
Enters shadow 18:39:54 - 119° (ESE) 1,733 -1.1 -7.6°
